Regional Weather Roundup
Issued by NWS Charleston, SC

Home | Current Version | Previous Version | Text Only | Print | Product List | Glossary On
Versions: 1 2 3 4 5 6 7 8 9 10 11 12 13 14 15 16 17 18 19 20 21 22 23 24 25 26 27 28 29 30 31 32 33 34 35 36 37 38 39 40 41 42 43 44 45 46 47 48 49 50
000
ASUS42 KCHS 270127
RWRCHS

REGIONAL WEATHER ROUNDUP
NATIONAL WEATHER SERVICE CHARLESTON SC
900 PM EDT MON JUN 26 2017

NOTE: "FAIR" INDICATES FEW OR NO CLOUDS BELOW 12,000 FEET WITH NO
SIGNIFICANT WEATHER AND/OR OBSTRUCTIONS TO VISIBILITY.

NOT ALL STATIONS ARE QUALITY CONTROLLED. USE DATA WITH CAUTION...
ESPECIALLY DEWPOINT OBSERVATIONS.

SCZ027-030-031-034>040-042>050-270200-
...SOUTHEAST SOUTH CAROLINA...

CITY           SKY/WX    TMP DP  RH WIND       PRES   REMARKS
N CHARLESTON   PTCLDY    78  65  63 E6        30.03S
WATERFRONT PRK   N/A     81  68  64 E7        30.02R
JOHNS ISLAND   FAIR      77  68  73 CALM      30.03F
PINOPOLIS        N/A     81  66  61 CALM      29.98R
MONCKS CORNER  FAIR      72  68  88 CALM      30.04S
SUMMERVILLE    FAIR      73  68  83 CALM      30.05S
BEAUFORT MCAS  MOCLDY    80  74  81 CALM      30.03F
BEAUFORT ARPT  FAIR      77  70  78 CALM      30.03S
HILTON HEAD IS CLEAR     79  72  78 CALM      30.04S
WALTERBORO     CLEAR     72  68  88 N3        30.05S
ALLENDALE      FAIR      75  68  78 CALM      30.04S

...SOUTHERN MIDLANDS AND PEE DEE...

CITY           SKY/WX    TMP DP  RH WIND       PRES   REMARKS
GEORGETOWN     FAIR      72  66  83 CALM      30.05S
KINGSTREE      FAIR      72  64  78 CALM      30.04S
ORANGEBURG     PTCLDY    73  65  75 CALM      30.05S
BARNWELL       FAIR      75  68  78 CALM      30.06R
AIKEN          FAIR      73  61  64 CALM      30.09S
MANNING        FAIR      72  66  83 CALM      30.05S
COLUMBIA       PTCLDY    81  59  47 CALM      30.04R
SUMTER         CLEAR     77  61  58 SW7       30.02S
FLORENCE       CLEAR     77  62  59 CALM      30.04R
MYRTLE BEACH   CLEAR     79  64  61 S6        30.05R
N MYRTLE BEACH CLEAR     73  68  84 CALM      30.03S

$$

GAZ063-065-086>088-099>101-113>116-118-119-134>141-150-270200-
...SOUTHEAST GEORGIA...

CITY           SKY/WX    TMP DP  RH WIND       PRES   REMARKS
SAVANNAH ARPT  MOCLDY    80  72  76 E8        30.03F
HUNTER AAF     MOCLDY    79  75  89 CALM      30.01S
FORT STEWART   PTCLDY    77  74  90 CALM      30.02S
STATESBORO     CLEAR     76  73  88 CALM      30.05S
SYLVANIA       CLEAR     76  74  93 CALM      30.06S
CLAXTON        FAIR      75  72  88 CALM      30.05R

...CSRA...CENTRAL AND FAR SOUTHEAST GEORGIA...

CITY           SKY/WX    TMP DP  RH WIND       PRES   REMARKS
THOMSON        CLEAR     72  65  81 CALM      30.11S
AUGUSTA-BUSH   CLEAR     76  63  64 SE6       30.03R
AUGUSTA-DANIEL PTCLDY    82  57  42 SE6       30.06R
SWAINSBORO     FAIR      77  70  78 CALM      30.06S
VIDALIA        PTCLDY    79  72  78 CALM      30.05S
EASTMAN        FAIR      78  56  47 CALM      30.07S
HAZLEHURST     FAIR      78  73  83 SE5       30.05R
ALMA           CLOUDY    75  71  87 E3        30.04R
WAYCROSS       CLOUDY    77  75  95 CALM      30.04R
JESUP          FAIR      73  70  88 CALM      30.05R
BAXLEY         FAIR      75  75 100 CALM      30.05R
BRUNSWICK      CLOUDY    79  77  94 CALM      30.03F
SAINT SIMONS   CLOUDY    79  76  90 E5        30.02S

$$

SCZ027-028-034-036>038-045-046-048>050-GAZ119-141-270200-
...LAKE AND SUPPLEMENTAL COASTAL OBSERVATIONS...

STATION/POSITION TIME  TEMP    WIND        PRES    WAVE   SWELL
                       AIR SEA DIR/SP/G            HT/PER HT/PER/DIR
                 (UTC) (F)     (DEG/KT/KT) (MB)    (FT/S) (FT/S/D)
WINYAH BAY       0045   76     330/  2     1017.0S
LAKE MURRAY      0020   81      CALM  /  2 1015.9
ACE BASIN NERRS  0030   80      60/  1     1017.0S
FORT PULASKI     0100   80 84  120/ 10/ 13 1017.2
SAPELO ISLAND    0100   77        CALM     1017.0

$$

ANZ835-935-AMZ111-154-330-350-352-354-370-450-454-472-270200-
...C-MAN AND BUOY OBSERVATIONS...

STATION/POSITION TIME  TEMP    WIND        PRES    WAVE   SWELL
                       AIR SEA DIR/SP/G            HT/PER HT/PER/DIR
                 (UTC) (F)     (DEG/KT/KT) (MB)    (FT/S) (FT/S/D)
BUOY 41004       0110   78 81   40/ 10/ 12 1016.1
BUOY 41008       0050   78 82  110/  6/  8 1016.4R   2/ 7   2/140/ 7
FOLLY BEACH CMAN 0100   80      80/ 10/ 11 1017.4F
CAPERS NEARSHORE 0108   85 83   80/ 10/ 14 1016.6F
FRIPP NEARSHORE  0108   80 83  100/ 10/ 14 1016.2F


STATION/POSITION TIME  TEMP    WIND        PRES    WAVE   SWELL
                       AIR SEA DIR/SP/G            HT/PER HT/PER/DIR
                 (UTC) (F)     (DEG/KT/KT) (MB)    (FT/S) (FT/S/D)
5E ST. MARYS GA  0100      80                N/A     2/ 8
FRYING PAN BUOY  0110   78 80   30/  8/ 10 1016.1
BUOY 41025       0050   78 81  360/  6/  6 1016.5F   2/ 8   2/110/ 8
CAPE LOOKOUT NC  0100   76      50/  2/  3 1016.5R
BUOY 41002       0050   78 80   90/ 10/ 12 1016.8S   3/ 5   2/230/ 5
BUOY 41010       0110   83 84  100/  6/  8 1017.0
ST AUGUSTINE FL  0100   74 79  190/  7/  8 1017.5F


$$




USA.gov is the U.S. government's official web portal to all federal, state and local government web resources and services.